Location: Sungai Ketit
(2.6833°N, 113.2333°E)
Time: 20:19:28
(UTC+00:00)

Cosmos 2173 Rocket - Pass Details

Date: 23 May 2024
Orbit: 943 x 1001 km, 83.0° (Epoch: 19 June)

Event Time Altitude Azimuth Distance (km) Brightness Sun altitude
Rises 11:01:18 0° 354° (N) 3,609 7.4 -7.8°
Reaches altitude 10° 11:03:47 10° 353° (N) 2,661 6.7 -8.3°
Maximum altitude 11:09:50 80° 268° (W) 960 4.1 -9.8°
Drops below altitude 10° 11:15:54 10° 181° (S) 2,659 6.1 -11.2°
Sets 11:18:24 0° 179° (S) 3,606 6.7 -11.7°
